Location: Bougoudala
(13.2282°N, 4.9477°W)
Time: 13:38:13
(UTC+00:00)

Cosmos 1939 Rocket - Pass Details

Date: 29 January 2020
Orbit: 534 x 583 km, 97.4° (Epoch: 24 February)

Event Time Altitude Azimuth Distance (km) Brightness Sun altitude
Rises 19:43:41 0° 183° (S) 2,678 6.6 -20.6°
Reaches altitude 10° 19:45:53 10° 191° (SSW) 1,793 5.7 -21.1°
Maximum altitude 19:49:29 38° 260° (W) 843 4.3 -22.0°
Drops below altitude 10° 19:53:08 10° 329° (NNW) 1,816 5.6 -22.8°
Sets 19:55:23 0° 337° (NNW) 2,718 6.5 -23.4°
